CUTE-1 (CO-55) 1 27844U 03031E 25340.54800677 .00000712 00000+0 32784-3 0 9999 2 27844 98.6763 346.5309 0010101 30.6763 329.5004 14.24171263164256 CUBESAT XI-IV (CO-57) 1 27848U 03031J 25339.94919541 .00000556 00000+0 26365-3 0 9990 2 27848 98.6794 345.8073 0010324 49.0774 311.1296 14.23479496163883 CUBESAT XI-V 1 28895U 05043F 25340.66326506 .00003703 00000+0 59892-3 0 9990 2 28895 98.2723 127.6387 0015397 96.1934 264.1027 14.71862798 73427 CUTE-1.7+APD II (CO-65) 1 32785U 08021C 25340.59642370 .00010792 00000+0 72526-3 0 9999 2 32785 97.8086 313.5978 0008530 335.4419 24.6401 15.06930137956165 CANX-2 1 32790U 08021H 25340.37914162 .00008566 00000+0 62886-3 0 9996 2 32790 97.8436 311.9341 0010183 348.1133 11.9850 15.03679736955817 SEEDS II (CO-66) 1 32791U 08021J 25340.40800480 .00029184 00000+0 11714-2 0 9990 2 32791 97.7436 325.3365 0000910 278.6038 81.5095 15.24931127957836 SWISSCUBE 1 35932U 09051B 25340.54259760 .00002875 00000+0 58388-3 0 9995 2 35932 98.4144 240.0114 0008086 90.3797 269.8330 14.61929405861000 BEESAT-1 1 35933U 09051C 25340.66203098 .00002421 00000+0 50050-3 0 9997 2 35933 98.4075 240.1564 0006472 101.2661 258.9267 14.61254771861064 ITUPSAT1 1 35935U 09051E 25340.48639368 .00002164 00000+0 46067-3 0 9999 2 35935 98.4166 239.3628 0008518 111.7442 248.4665 14.60011502860612 TISAT 1 1 36799U 10035E 25340.60256838 .00031637 00000+0 13393-2 0 9995 2 36799 98.0604 266.5420 0002518 144.2056 215.9348 15.23117367838306 AEROCUBE 4.5A 1 38767U 12048K 25340.55170547 .00075792 00000+0 13134-2 0 9997 2 38767 64.6428 340.5052 0068696 233.7966 125.6809 15.47799600342517 STRAND-1 1 39090U 13009E 25340.47257188 .00000771 00000+0 27438-3 0 9991 2 39090 98.3824 160.5246 0009785 87.4154 272.8153 14.36996980669384 BRITE-AUSTRIA 1 39091U 13009F 25340.40539467 .00000498 00000+0 18441-3 0 9998 2 39091 98.3889 159.6890 0011350 95.3044 264.9438 14.36430404669378 NEE-01 PEGASO 1 39151U 13018B 25340.32122107 .00007038 00000+0 69366-3 0 9994 2 39151 98.0958 113.6240 0014153 80.7643 279.5175 14.92281901681928 POPACS 1 1 39268U 13055D 25340.65062356 .00263566 21220-4 85978-3 0 9998 2 39268 80.9553 219.6307 0123987 67.9812 293.4566 15.79078633642614 POPACS 2 1 39269U 13055E 25340.35500413 .00023919 00000+0 43249-3 0 9996 2 39269 80.9938 3.7472 0449295 90.2403 275.0284 14.83145112634542 POPACS 3 1 39270U 13055F 25339.52752802 .00012558 00000+0 31283-3 0 9998 2 39270 81.0050 78.5033 0567892 298.1115 56.3787 14.51681478610410 ZACUBE-1 (TSHEPISOSAT) 1 39417U 13066B 25340.11676378 .00008269 00000+0 67519-3 0 9998 2 39417 97.8073 296.6509 0041583 168.1343 192.0870 14.98988800651783 WNISAT-1 1 39423U 13066H 25340.41702061 .00002495 00000+0 46218-3 0 9995 2 39423 97.6924 138.6251 0165379 118.9143 242.8760 14.57620053638643 TRITON-1 1 39427U 13066M 25340.55805746 .00005119 00000+0 62860-3 0 9995 2 39427 97.8319 249.8217 0092908 140.9077 219.8897 14.80437586645570 GOMX-1 1 39430U 13066Q 25340.56521174 .00004347 00000+0 66638-3 0 9999 2 39430 97.6593 188.0769 0130127 336.4873 23.0417 14.68539140641635 CUBEBUG-2 (LO-74) 1 39440U 13066AA 25340.56882724 .00009191 00000+0 88534-3 0 9992 2 39440 97.8703 284.2482 0058651 306.7348 52.8492 14.91866897648256 NEE-02 KRYSAOR 1 39441U 13066AB 25340.58018602 .00006415 00000+0 71905-3 0 9991 2 39441 97.8731 276.5124 0067136 342.5233 17.3671 14.85531720647592 FUNCUBE-1 (AO-73) 1 39444U 13066AE 25340.60821742 .00013230 00000+0 89950-3 0 9996 2 39444 97.8053 303.8124 0040275 135.6963 224.7499 15.05801222650644 UWE-3 1 39446U 13066AG 25340.59707173 .00008568 00000+0 76960-3 0 9992 2 39446 97.8466 290.9431 0049547 240.6533 118.9733 14.95006172648788 BRITE-CA1 (TORONTO) 1 40020U 14033L 25340.31925278 .00003190 00000+0 48953-3 0 9992 2 40020 97.9492 108.1945 0079491 173.5140 186.7116 14.72178803613839 DUCHIFAT-1 1 40021U 14033M 25340.60386917 .00058790 00000+0 14663-2 0 9992 2 40021 98.0787 11.7818 0008035 53.0828 307.1151 15.39968176625901 NANOSATC-BR1 1 40024U 14033Q 25340.55539968 .00025899 00000+0 10590-2 0 9994 2 40024 98.0894 351.7234 0005436 119.6383 240.5394 15.24326002624569 QB50P1 1 40025U 14033R 25340.60695290 .00016456 00000+0 90101-3 0 9998 2 40025 98.0959 333.8137 0009878 154.0119 206.1608 15.14279217623849 QB50P2 1 40032U 14033Y 25340.59081820 .00014101 00000+0 83144-3 0 9996 2 40032 98.0632 321.1136 0009717 106.4006 253.8291 15.11655211623534 PERSEUS-M2 1 40037U 14033AD 25340.58728480 .00004354 00000+0 40673-3 0 9999 2 40037 97.9751 282.5986 0011054 211.6776 148.3780 14.94653012622001 PERSEUS-M1 1 40039U 14033AF 25340.57203024 .00004737 00000+0 44140-3 0 9990 2 40039 97.9456 276.9059 0010834 209.8382 150.2221 14.94708470621853 POLYITAN-1 1 40042U 14033AJ 25340.58255637 .00028803 00000+0 11421-2 0 9997 2 40042 98.1071 344.6458 0010393 96.3633 263.8787 15.25298455624153 TIGRISAT 1 40043U 14033AK 25340.36394468 .00004806 00000+0 56996-3 0 9994 2 40043 97.7559 130.2478 0050006 348.6258 11.3822 14.84076920617010 AEROCUBE 6A 1 40045U 14033AM 25340.42497074 .00013390 00000+0 12054-2 0 9994 2 40045 97.7047 145.0142 0039624 301.8170 57.9195 14.95131390617781 AEROCUBE 6B 1 40046U 14033AN 25340.40517687 .00013719 00000+0 11956-2 0 9991 2 40046 97.7015 144.4157 0038064 293.6439 66.0789 14.96436413617896 CANX-4 1 40055U 14034C 25340.60453766 .00002582 00000+0 34225-3 0 9992 2 40055 98.3359 203.5687 0011586 270.8740 89.1144 14.80761788616025 CANX-5 1 40056U 14034D 25340.60513972 .00002608 00000+0 34556-3 0 9995 2 40056 98.3362 203.6015 0011582 270.9958 88.9926 14.80777847606830 UKUBE-1 1 40074U 14037F 25340.42296288 .00018786 00000+0 11731-2 0 9999 2 40074 98.4140 319.1453 0003311 83.4582 276.7022 15.09537280619436 BRITE-PL2 (HEWELIUSZ) 1 40119U 14049B 25340.57052925 .00004508 00000+0 43165-3 0 9990 2 40119 97.9000 86.4048 0014861 33.2870 326.9281 14.93610052612680 AEROCUBE 5C 1 40965U 15058B 25340.64862529 .00007852 00000+0 68922-3 0 9990 2 40965 64.7668 140.9879 0138689 138.4705 222.7045 14.90078640336951 AEROCUBE 7 1 40966U 15058C 25340.62933300 .00010416 00000+0 84197-3 0 9997 2 40966 64.7624 127.1423 0128992 138.1353 222.9715 14.93858659337178 FOX-1A (AO-85) 1 40967U 15058D 25340.63208290 .00007033 00000+0 63228-3 0 9995 2 40967 64.7737 156.7886 0135653 132.3607 228.9087 14.89574553 84872 SINOD-D 1 1 40968U 15058E 25340.62722441 .00010779 00000+0 87889-3 0 9994 2 40968 64.7745 141.0972 0124097 130.5428 230.6573 14.93965419 87879 SNAP-3 ALICE 1 40970U 15058G 25340.59672674 .00052741 00000+0 15728-2 0 9992 2 40970 64.7612 34.5386 0045126 123.8186 236.7256 15.33325322 87133 LMRST-SAT 1 40971U 15058H 25340.60709323 .00007076 00000+0 63783-3 0 9993 2 40971 64.7747 152.8545 0138119 134.1563 227.1004 14.89231868 84866 SNAP-3 EDDIE 1 40972U 15058J 25340.38640705 .00062062 00000+0 17968-2 0 9996 2 40972 64.7536 27.1370 0048322 127.5556 232.9982 15.34041713 89220 PROPCUBE 3 1 40973U 15058K 25340.56182142 .00009822 00000+0 81760-3 0 9990 2 40973 64.7682 133.6544 0131378 136.2246 224.9375 14.92584943 86039 BISONSAT 1 40974U 15058L 25340.65185115 .00023306 00000+0 12732-2 0 9999 2 40974 64.7628 73.7724 0087699 132.0349 228.8281 15.11005666 86477 SNAP-3 JIMI 1 40975U 15058M 25340.64955537 .00014469 00000+0 10313-2 0 9995 2 40975 64.7663 107.7973 0113777 134.4907 226.5581 14.99655094 85326 PROPCUBE 1 (FLORA) 1 40976U 15058N 25340.65699386 .00006192 00000+0 58092-3 0 9995 2 40976 64.7729 171.3814 0137559 136.2595 224.9514 14.87907836 87600 SINOD-D 3 1 40977U 15058P 25340.62043151 .00009456 00000+0 80642-3 0 9998 2 40977 64.7711 156.3639 0126220 135.0546 226.0870 14.92185897 86008 HORYU-4 1 41340U 16012D 25340.37349146 .00075721 00000+0 13012-2 0 9993 2 41340 30.9953 353.6635 0006693 172.2657 187.8097 15.49767084540569 RAVAN 1 41849U 16067B 25340.60828609 .00046615 00000+0 12099-2 0 9993 2 41849 98.0159 205.1750 0006950 337.2200 22.8734 15.38816747497935 CELTEE 1 1 41850U 16067C 25340.53329040 .00011718 00000+0 59412-3 0 9999 2 41850 98.0862 188.9799 0001531 119.0019 241.1366 15.17127518496645 OPTICUBE 04 1 41851U 16067D 25340.53367518 .00004721 00000+0 30624-3 0 9992 2 41851 98.0825 177.6713 0017276 52.0003 308.2781 15.08497995496115 AEROCUBE 8D 1 41852U 16067E 25340.56196620 .00014142 00000+0 64221-3 0 9998 2 41852 98.0896 191.2266 0005147 80.4774 279.7041 15.20898650496751 AEROCUBE 8C 1 41853U 16067F 25340.02301636 .00013378 00000+0 60466-3 0 9992 2 41853 98.0756 188.1433 0006382 20.9851 339.1643 15.21068616496666 CORVUS BC2 1 42846U 17042X 25340.52007683 .00007021 00000+0 50222-3 0 9996 2 42846 97.3852 144.8171 0015144 55.5122 304.7533 15.04646492458071 CORVUS BC1 1 42847U 17042Y 25340.54172000 .00007655 00000+0 54403-3 0 9993 2 42847 97.3878 145.5116 0012930 32.1733 328.0280 15.04887660458102 MAKERSAT 0 1 43016U 17073D 25340.61611963 .00035030 00000+0 11854-2 0 9990 2 43016 97.4890 217.5342 0126342 233.0694 125.8917 15.23111770437063 SIRION PATHFINDER-2 1 43759U 18099B 25340.59203495 .00009743 00000+0 56694-3 0 9991 2 43759 97.4547 29.2118 0007727 241.4470 118.5984 15.12225346383498 CORVUS BC4 1 43767U 18099K 25340.61825731 .00009568 00000+0 58474-3 0 9999 2 43767 97.4351 24.1825 0007535 312.5029 47.5563 15.10450984383317 SPACEBEE-7 1 43816U 18099BL 25339.97074526 .00121680 00000+0 16808-2 0 9993 2 43816 97.4733 55.3136 0003592 187.7815 172.3385 15.56737469384474 SHIELDS 1 1 43850U 18104B 25340.55222810 .00166619 00000+0 76086-3 0 9991 2 43850 85.0075 268.2392 0007696 114.6950 245.5127 15.83284769389675 DUCHIFAT-3 1 44854U 19089C 25337.20011490 .01105376 61298-3 19590-2 0 9997 2 44854 36.9264 289.0060 0011658 216.1192 143.8795 16.00863037330619 M2 PATHFINDER 1 45727U 20037E 25340.39126268 .00005829 00000+0 43190-3 0 9991 2 45727 97.8131 164.5635 0013190 84.5135 275.7594 15.03446013296515 NETSAT-4 1 46504U 20068U 25339.92484179 .00024848 00000+0 69955-3 0 9993 2 46504 97.8591 328.7540 0004618 302.6439 57.4358 15.36450918286027 NETSAT-3 1 46505U 20068V 25340.61261204 .00027239 00000+0 80166-3 0 9998 2 46505 97.8615 328.0197 0004694 322.1316 37.9596 15.35037241286061 NETSAT-1 1 46506U 20068W 25340.57918821 .00022870 00000+0 81670-3 0 9995 2 46506 97.8666 324.3364 0005155 343.0321 17.0744 15.28853992285811 NETSAT-2 1 46507U 20068X 25340.57735260 .00032023 00000+0 88718-3 0 9991 2 46507 97.8601 328.9203 0004048 349.3993 10.7164 15.36899533286061 WILDTRACKCUBE-SIMBA 1 47941U 21022K 25340.52421889 .00134868 00000+0 13335-2 0 9991 2 47941 97.4062 250.8668 0008318 40.6496 319.5383 15.65400563261117 GREENCUBE (IO-117) 1 53109U 22080E 25339.41693315 -.00000003 00000+0 00000+0 0 9996 2 53109 70.1582 5.6280 0008843 329.0635 30.9503 6.42583207 79615 SITRO-AIS 5 (KATYS) 1 57176U 23091L 25340.61148420 .00019726 00000+0 80747-3 0 9994 2 57176 97.5351 38.0928 0013991 64.2516 296.0164 15.24263069134953 SITRO-AIS 6 (CHIRKIN) 1 57192U 23091AC 25340.58716602 .00012297 00000+0 52686-3 0 9998 2 57192 97.5352 37.9500 0014225 65.8998 294.3725 15.22827277134946 SITRO-AIS 8 (ANOKHIN) 1 57193U 23091AD 25340.58872712 .00023198 00000+0 89746-3 0 9993 2 57193 97.5345 38.9970 0013149 62.7630 297.4947 15.26130877135010 SITRO-AIS 7 (FARTUSHNIY) 1 57194U 23091AE 25340.62409999 .00011076 00000+0 47769-3 0 9993 2 57194 97.5354 37.8895 0014158 66.6287 293.6437 15.22630400134943 SITRO-AIS 10 (BURDAEV) 1 57199U 23091AK 25340.58464111 .00028568 00000+0 96537-3 0 9991 2 57199 97.5362 42.3893 0008887 46.3245 313.8731 15.30576806135229 SITRO-AIS 9 (SHCHUKIN) 1 57201U 23091AM 25340.62819058 .00027614 00000+0 94152-3 0 9996 2 57201 97.5360 42.2808 0008910 46.5647 313.6334 15.30294026135229 SITRO-AIS 12 (SMIRENNIY) 1 57204U 23091AQ 25340.58533763 .00029485 00000+0 99795-3 0 9996 2 57204 97.5370 42.6006 0008667 40.8013 319.3875 15.30520451135238 SITRO-AIS 11 (SHEFFER) 1 57208U 23091AU 25340.57693132 .00029517 00000+0 99095-3 0 9995 2 57208 97.5370 42.7406 0008550 40.4957 319.6918 15.30784109135245 SITRO-AIS 25 1 59066U 24039R 25340.49889391 .00010111 00000+0 82374-3 0 9999 2 59066 95.3962 102.8073 0148201 281.1027 77.3564 14.91319798 95985 SITRO-AIS 26 1 59067U 24039S 25340.61039121 .00008717 00000+0 71320-3 0 9990 2 59067 95.3959 102.8169 0148590 281.0856 77.3691 14.91148772 95992 SITRO-AIS 27 1 59068U 24039T 25340.49736380 .00010289 00000+0 83511-3 0 9990 2 59068 95.3962 102.9285 0147627 280.5106 77.9514 14.91516107 95990 SITRO-AIS 28 1 59071U 24039U 25340.61364891 .00009339 00000+0 75747-3 0 9998 2 59071 95.3960 103.0451 0147607 279.9546 78.5046 14.91558790 96012 GRBBETA 1 60237U 24128C 25340.63766877 .00007941 00000+0 55671-3 0 9996 2 60237 61.9884 170.9015 0056543 95.4779 265.2767 15.04660688 77275 OOV-CUBE (TUBSAT-30) 1 60240U 24128F 25340.62036381 .00004998 00000+0 38595-3 0 9994 2 60240 61.9933 176.4825 0058603 93.0522 267.7276 15.01550481 77181 ROBUSTA-3A (MEDITERRAN*) 1 60243U 24128J 25340.63298467 .00011458 00000+0 72539-3 0 9998 2 60243 61.9850 167.4438 0056345 89.8781 270.8769 15.08083611 77346 LASARSAT 1 62391U 24247Q 25340.48726898 .00040531 00000+0 12069-2 0 9998 2 62391 44.9788 255.1241 0001784 72.6354 287.4726 15.34099490 53604 CROCUBE 1 62394U 24247T 25340.11439712 .00038933 00000+0 11379-2 0 9993 2 62394 44.9746 256.5076 0003152 78.8007 281.3233 15.34700535 53555